Weather History for Barking Sands, HI

Change the Weather History Date:

Saturday, April 12, 2014

  Actual Average Record
Temperature  
Mean Temperature 72 °F -  
Max Temperature 81 °F 84 °F 87 °F (1969)
Min Temperature 64 °F 63 °F 60 °F (1957)
Cooling Degree Days 8    
Growing Degree Days 22 (Base 50)    
Moisture  
Dew Point 59 °F    
Average Humidity 63    
Maximum Humidity 75    
Minimum Humidity 49    
Precipitation  
Precipitation 0.00 in - - ()
Sea Level Pressure  
Sea Level Pressure 30.10 in    
Wind  
Wind Speed 6 mph (NNE)    
Max Wind Speed 20 mph    
Max Gust Speed 24 mph    
Visibility 10 miles    
Events      
Averages and records for this station are not official NWS values.
T = Trace of Precipitation, MM = Missing Value Source: NWS Daily Summary

Daily Weather History Graph

Daily Weather History Graph

Search for Another Location

Airport:

Trip Planner

Search our weather history database for the weather conditions in past years. The results will help you decide how hot, cold, wet, or windy it might be!

Date:

Astronomy

Apr. 12, 2014 Rise Set
Actual Time 6:21 AM HST 6:58 PM HST
Civil Twilight 5:59 AM HST 7:20 PM HST
Nautical Twilight 5:32 AM HST 7:47 PM HST
Astronomical Twilight 5:05 AM HST 8:14 PM HST
Moon 5:02 PM HST (4/12) 4:37 AM HST (4/12)
Length of Visible Light 13h 21m
Length of Day
12h 36m
Waxing Gibbous, 94% of the Moon is Illuminated
Apr 12
Waxing Gibbous
Apr 14
Full
Apr 21
Last Quarter
Apr 28
New
May 6
First Quarter

Hourly Weather History & Observations

Time (HST) Temp. Heat Index Dew Point Humidity Pressure Visibility Wind Dir Wind Speed Gust Speed Precip Events Conditions
12:56 AM 68.0 °F - 57.9 °F 70% 30.10 in 10.0 mi NNE 3.5 mph - N/A   Partly Cloudy
1:56 AM 66.9 °F - 57.0 °F 70% 30.09 in 10.0 mi NNE 5.8 mph - N/A   Clear
2:56 AM 66.9 °F - 55.0 °F 66% 30.09 in 10.0 mi ENE 5.8 mph - N/A   Clear
3:56 AM 64.9 °F - 55.0 °F 70% 30.08 in 10.0 mi Calm Calm - N/A   Clear
4:56 AM 64.0 °F - 55.0 °F 73% 30.08 in 10.0 mi East 3.5 mph - N/A   Partly Cloudy
5:56 AM 64.0 °F - 55.9 °F 75% 30.10 in 10.0 mi ENE 4.6 mph - N/A   Clear
6:56 AM 64.0 °F - 55.0 °F 73% 30.11 in 10.0 mi ENE 4.6 mph - N/A   Clear
7:56 AM 72.0 °F - 59.0 °F 64% 30.11 in 10.0 mi SE 3.5 mph - N/A   Clear
8:56 AM 75.0 °F - 59.0 °F 57% 30.13 in 10.0 mi Calm Calm - N/A   Scattered Clouds
9:56 AM 75.9 °F - 60.1 °F 58% 30.14 in 10.0 mi West 5.8 mph - N/A   Clear
10:56 AM 78.1 °F - 60.1 °F 54% 30.12 in 10.0 mi WNW 8.1 mph - N/A   Mostly Cloudy
11:56 AM 78.1 °F - 61.0 °F 56% 30.11 in 10.0 mi Variable 6.9 mph - N/A   Mostly Cloudy
12:56 PM 79.0 °F - 61.0 °F 54% 30.08 in 10.0 mi NNW 16.1 mph 20.7 mph N/A   Mostly Cloudy
1:56 PM 78.1 °F - 59.0 °F 52% 30.06 in 10.0 mi Calm Calm - N/A   Overcast
2:56 PM 78.1 °F - 60.1 °F 54% 30.06 in 10.0 mi NNW 10.4 mph 20.7 mph N/A   Overcast
3:56 PM 81.0 °F 81.6 °F 60.1 °F 49% 30.04 in 10.0 mi North 19.6 mph 23.0 mph N/A   Scattered Clouds
4:56 PM 79.0 °F - 61.0 °F 54% 30.04 in 10.0 mi NNE 18.4 mph - N/A   Mostly Cloudy
5:56 PM 77.0 °F - 62.1 °F 60% 30.06 in 10.0 mi North 15.0 mph 24.2 mph N/A   Overcast
6:56 PM 73.9 °F - 61.0 °F 64% 30.09 in 10.0 mi North 11.5 mph - N/A   Partly Cloudy
7:56 PM 73.0 °F - 63.0 °F 71% 30.11 in 10.0 mi NNE 8.1 mph - N/A   Overcast
8:56 PM 73.0 °F - 62.1 °F 68% 30.13 in 10.0 mi Calm Calm - 0.00 in   Overcast
9:56 PM 72.0 °F - 61.0 °F 68% 30.14 in 10.0 mi NNE 8.1 mph - N/A   Overcast
10:56 PM 73.0 °F - 61.0 °F 66% 30.15 in 10.0 mi Calm Calm - N/A   Mostly Cloudy
11:56 PM 70.0 °F - 59.0 °F 68% 30.13 in 10.0 mi SSW 4.6 mph - N/A   Mostly Cloudy